Weather History for St. Petersburg Airport, FL

Change the Weather History Date:

Friday, October 7, 2011

  Actual Average Record
Temperature  
Mean Temperature 76 °F -  
Max Temperature 84 °F 85 °F 92 °F (1973)
Min Temperature 71 °F 71 °F 60 °F (1964)
Cooling Degree Days 12    
Growing Degree Days 26 (Base 50)    
Moisture  
Dew Point 68 °F    
Average Humidity 76    
Maximum Humidity 87    
Minimum Humidity 60    
Precipitation  
Precipitation 0.08 in - - ()
Sea Level Pressure  
Sea Level Pressure 30.09 in    
Wind  
Wind Speed 11 mph (NE)    
Max Wind Speed 17 mph    
Max Gust Speed 25 mph    
Visibility 10 miles    
Events Rain , Thunderstorm    
Averages and records for this station are not official NWS values.
T = Trace of Precipitation, MM = Missing Value Source: NWS Daily Summary

Daily Weather History Graph

Daily Weather History Graph

Search for Another Location

Airport:

Trip Planner

Search our weather history database for the weather conditions in past years. The results will help you decide how hot, cold, wet, or windy it might be!

Date:

Astronomy

Oct. 07, 2011 Rise Set
Actual Time 7:26 AM EDT 7:10 PM EDT
Civil Twilight 7:03 AM EDT 7:33 PM EDT
Nautical Twilight 6:35 AM EDT 8:00 PM EDT
Astronomical Twilight 6:08 AM EDT 8:28 PM EDT
Moon 4:36 PM EDT (10/7) 3:33 AM EDT (10/7)
Length of Visible Light 12h 30m
Length of Day
11h 43m
Waxing Gibbous, 83% of the Moon is Illuminated
Oct 7
Waxing Gibbous
Oct 11
Full
Oct 19
Last Quarter
Oct 26
New
Nov 2
First Quarter

Hourly Weather History & Observations

Time (EDT) Temp. Heat Index Dew Point Humidity Pressure Visibility Wind Dir Wind Speed Gust Speed Precip Events Conditions
12:53 AM 73.9 °F - 66.9 °F 79% 30.10 in 10.0 mi NNE 10.4 mph - N/A   Clear
1:53 AM 73.9 °F - 66.9 °F 79% 30.09 in 10.0 mi NE 10.4 mph - N/A   Clear
2:53 AM 73.0 °F - 66.9 °F 81% 30.08 in 10.0 mi NNE 12.7 mph - N/A   Clear
3:53 AM 72.0 °F - 66.0 °F 81% 30.07 in 10.0 mi NNE 9.2 mph - N/A   Clear
4:53 AM 71.1 °F - 66.9 °F 87% 30.07 in 10.0 mi NNE 9.2 mph - N/A   Clear
5:53 AM 71.1 °F - 66.9 °F 87% 30.08 in 10.0 mi NNE 12.7 mph - N/A   Clear
6:53 AM 71.1 °F - 66.9 °F 87% 30.09 in 10.0 mi NE 10.4 mph - N/A   Clear
7:53 AM 72.0 °F - 66.9 °F 84% 30.11 in 10.0 mi ENE 10.4 mph - N/A   Clear
8:53 AM 73.9 °F - 68.0 °F 82% 30.11 in 10.0 mi ENE 11.5 mph - N/A   Clear
9:53 AM 77.0 °F - 68.0 °F 74% 30.12 in 10.0 mi ENE 9.2 mph - N/A   Clear
10:53 AM 80.1 °F 82.9 °F 69.1 °F 69% 30.13 in 10.0 mi ENE 10.4 mph - N/A   Unknown
11:53 AM 82.9 °F 85.8 °F 68.0 °F 60% 30.12 in 10.0 mi East 11.5 mph - N/A   Partly Cloudy
12:53 PM 82.4 °F 85.4 °F 68.0 °F 62% 30.10 in 10.0 mi ENE 11.5 mph - N/A   Partly Cloudy
1:53 PM 82.0 °F 85.9 °F 70.0 °F 67% 30.08 in 10.0 mi NE 15.0 mph 20.7 mph 0.00 in   Mostly Cloudy
2:06 PM 78.8 °F - 68.0 °F 69% 30.08 in 10.0 mi NE 17.3 mph 25.3 mph N/A Thunderstorm Overcast
2:21 PM 75.2 °F - 69.8 °F 83% 30.09 in 4.0 mi NE 13.8 mph 23.0 mph 0.07 in Rain Light Rain
2:53 PM 75.9 °F - 69.1 °F 79% 30.07 in 10.0 mi ENE 10.4 mph 20.7 mph 0.08 in Rain Light Rain
3:53 PM 78.1 °F - 69.1 °F 74% 30.07 in 10.0 mi ENE 15.0 mph 21.9 mph 0.00 in   Partly Cloudy
4:53 PM 80.6 °F 83.9 °F 69.8 °F 70% 30.06 in 10.0 mi East 8.1 mph - N/A   Clear
5:53 PM 81.0 °F 84.1 °F 69.1 °F 67% 30.07 in 10.0 mi ENE 10.4 mph - N/A   Scattered Clouds
6:53 PM 78.1 °F - 66.0 °F 66% 30.07 in 10.0 mi ENE 12.7 mph 19.6 mph N/A   Partly Cloudy
7:53 PM 77.0 °F - 68.0 °F 74% 30.07 in 10.0 mi NE 11.5 mph - N/A   Clear
8:53 PM 75.9 °F - 69.1 °F 79% 30.10 in 10.0 mi NNE 11.5 mph - N/A   Mostly Cloudy
9:53 PM 75.0 °F - 66.9 °F 76% 30.13 in 10.0 mi NE 12.7 mph 23.0 mph 0.00 in   Mostly Cloudy
10:53 PM 73.9 °F - 68.0 °F 82% 30.10 in 10.0 mi ENE 10.4 mph 19.6 mph 0.00 in   Scattered Clouds
11:53 PM 73.0 °F - 66.9 °F 81% 30.10 in 10.0 mi ENE 11.5 mph 17.3 mph N/A   Clear